Location: Goettingen
(51.5300°N, 9.9433°E)
Time: 12:44:16
(UTC+01:00)

ISS - Pass Details

Date: 25 February 2019
Orbit: 406 x 411 km, 51.6° (Epoch: 20 March)

Event Time Altitude Azimuth Distance (km) Brightness Sun altitude
Exits shadow 06:21:43 - 218° (SW) 2,359 -0.3 -9.0°
Rises 06:21:49 0° 217° (SW) 2,317 -0.3 -9.0°
Reaches altitude 10° 06:24:07 10° 203° (SSW) 1,461 -1.2 -8.6°
Maximum altitude 06:26:50 24° 147° (SSE) 880 -1.7 -8.2°
Drops below altitude 10° 06:29:35 10° 91° (E) 1,470 0.8 -7.8°
Sets 06:31:54 0° 77° (ENE) 2,334 1.7 -7.4°
